Location: ??????
(38.5153°N, 23.0340°E)
Time: 13:49:02
(UTC+00:00)

Cosmos 1900 - Pass Details

Date: 13 December 2025
Orbit: 680 x 735 km, 66.1° (Epoch: 17 January)

Event Time Altitude Azimuth Distance (km) Brightness Sun altitude
Rises 15:28:52 0° 333° (NNW) 3,136 7.7 -4.5°
Reaches altitude 10° 15:31:17 10° 337° (NNW) 2,203 6.9 -5.0°
Maximum altitude 15:36:15 62° 58° (ENE) 799 4.4 -5.8°
Drops below altitude 10° 15:41:06 10° 139° (SE) 2,154 6.7 -6.7°
Sets 15:43:26 0° 143° (SE) 3,059 7.5 -7.1°
